RH
85 85 92 98 99 99 97 95 97 97 95 94 95 96 93 87 87 94 97 95 94 95 91 81 76 78 83 90 97 100 99 99 100 100 100 100 98 97 97 97 98 98
90 92 94 98 100 98 95 96 100 100 98 100 99 96 93 90 89 92 96 98 95 94 96 92 84 83 90 98 100 101 100 99 100 100 100 100 99 98 98 96 94 95
96 99 99 99 99 99 98 99 101 100 99 100 100 97 92 91 92 93 96 99 97 94 95 96 90 81 82 93 101 101 101 100 99 100 100 100 100 99 99 99 97 95
91 93 96 98 98 98 101 100 99 100 101 100 100 98 95 94 93 94 97 99 98 98 97 94 93 83 70 76 91 98 100 101 100 101 101 100 100 100 99 100 100 99
94 93 92 94 97 98 100 98 98 100 100 99 99 97 96 95 92 90 91 92 93 98 99 94 90 81 67 61 69 82 92 97 99 100 101 101 100 99 100 100 100 101
99 100 96 94 97 100 100 98 99 100 101 99 97 97 98 97 96 93 92 90 88 92 98 98 94 89 81 67 57 61 71 81 89 94 97 99 100 100 100 100 100 100
100 102 100 96 96 99 101 100 98 98 101 99 97 99 100 99 99 100 97 94 92 94 97 97 96 95 91 79 62 53 53 58 66 75 81 85 89 92 94 96 99 100
101 102 100 97 95 98 100 99 98 98 100 100 98 98 99 100 101 101 101 100 98 98 94 91 94 96 94 86 68 53 49 50 50 54 59 64 68 72 76 80 85 90
100 101 101 99 93 95 100 100 99 100 100 100 100 99 99 101 101 97 98 101 100 99 93 88 91 96 99 96 82 65 55 51 51 50 48 48 51 54 57 61 63 67
99 99 101 101 95 95 100 101 99 99 100 99 100 100 98 98 96 93 95 97 97 98 96 92 90 90 95 99 96 90 76 61 57 57 52 47 46 47 49 52 53 53
97 100 100 100 99 98 98 99 100 100 100 100 101 98 93 94 96 95 96 97 95 94 95 96 92 88 90 91 90 94 87 69 58 57 54 51 49 48 48 49 51 50
95 100 101 100 100 99 97 97 98 98 98 97 97 93 88 93 98 97 95 94 94 94 93 94 92 86 86 85 80 79 75 64 55 52 51 49 48 48 48 48 49 48
92 96 100 102 100 99 98 97 95 96 95 94 93 91 89 91 95 95 94 92 93 95 93 92 90 83 79 78 74 70 66 60 54 51 48 46 46 47 48 48 48 47
87 91 97 102 102 100 99 99 98 97 96 96 95 92 91 90 87 88 90 89 93 98 97 94 89 78 70 66 63 62 61 58 55 53 51 49 49 50 50 50 49 48
82 86 93 100 102 102 100 100 101 100 98 97 94 93 94 94 92 92 90 89 94 99 100 99 91 76 66 58 51 49 50 52 52 52 51 49 50 53 55 53 51 50
82 86 92 96 99 101 102 101 101 100 100 99 97 99 101 101 100 97 92 92 98 100 100 100 93 78 66 58 52 48 48 51 54 53 51 49 50 54 57 56 54 51
85 89 93 96 98 100 101 102 101 100 101 101 101 102 102 102 103 98 93 96 100 100 99 101 98 86 72 63 60 61 61 61 60 58 56 54 52 53 55 55 54 51
88 91 94 98 101 102 100 100 100 101 102 102 101 101 100 100 99 97 97 100 100 100 100 100 100 96 87 77 73 71 71 68 64 58 54 52 52 52 52 51 50 49
92 95 98 100 102 103 101 99 100 101 101 101 101 101 100 98 98 99 102 102 100 100 100 99 100 101 97 90 83 76 71 69 65 59 54 51 50 50 50 50 50 50
99 99 100 101 102 102 101 101 102 101 101 101 101 102 101 99 99 100 101 100 100 101 101 99 97 95 92 88 85 81 75 70 66 62 56 52 49 49 50 50 49 48
101 100 101 102 101 101 101 101 101 101 100 100 101 101 101 100 100 100 100 101 100 99 97 92 88 87 86 85 85 83 81 77 72 64 55 50 49 50 50 48 46 45
101 100 101 101 100 101 102 100 100 100 100 100 100 100 99 98 99 99 99 99 97 93 89 85 84 84 81 78 76 74 75 75 69 61 53 49 49 49 47 46 45 46
101 100 100 101 101 101 101 101 102 101 100 99 100 99 98 98 97 96 94 90 86 85 82 78 78 80 77 71 67 68 72 70 63 57 52 49 48 48 46 46 46 49
101 100 100 101 101 100 100 101 102 102 100 100 101 101 99 94 86 80 80 81 82 84 82 77 78 82 83 79 74 78 84 80 69 62 56 50 48 48 49 52 56 63
100 100 100 101 101 100 100 101 101 101 100 98 97 93 87 78 71 71 78 88 93 92 86 81 80 80 81 80 81 86 94 95 91 87 80 73 67 63 62 67 76 84
100 100 100 100 100 100 100 100 98 96 95 94 91 86 80 77 79 83 87 91 92 89 88 88 85 81 78 77 78 85 94 99 101 100 96 89 84 80 80 85 93 98
Wind_Speed
49 43 35 31 31 33 35 34 31 30 31 31 31 31 31 30 28 26 26 27 27 28 30 31 33 37 41 44 45 45 44 44 44 44 44 45 45 45 45 45 45 44
39 36 33 32 32 32 32 30 29 29 30 30 30 30 30 29 28 27 27 27 27 27 28 28 29 32 36 40 43 45 46 45 44 43 43 44 45 45 45 45 46 45
35 34 32 31 28 27 27 26 27 30 30 31 31 31 30 29 28 27 27 27 27 28 29 28 28 28 30 35 39 43 45 46 46 44 44 43 44 45 46 45 45 46
37 36 34 30 26 25 26 26 27 30 31 31 32 32 30 29 28 28 28 27 27 28 29 29 28 27 27 29 33 38 42 44 46 46 45 45 44 44 45 45 46 46
41 40 37 32 27 26 27 27 27 30 32 33 32 32 31 30 30 29 29 29 28 27 27 28 29 28 27 27 29 32 36 40 43 44 46 46 46 45 44 45 45 46
40 39 37 31 26 26 28 29 27 29 31 31 30 31 32 32 31 30 29 28 28 27 27 27 27 27 27 27 28 28 30 33 36 39 42 44 45 46 45 45 45 46
37 35 34 30 26 25 28 29 27 26 28 28 28 30 30 30 30 29 29 28 27 26 27 28 27 26 27 27 28 28 28 29 31 33 35 37 40 42 43 44 45 45
34 33 30 30 29 28 28 27 26 26 27 28 29 29 27 28 29 28 27 27 27 27 27 28 26 26 26 27 29 29 29 29 29 30 31 32 34 36 38 40 42 43
33 32 29 29 31 30 28 26 26 27 28 29 31 31 28 28 30 28 25 26 27 27 28 28 27 25 25 27 28 29 29 29 30 30 31 31 32 33 35 36 38 40
34 31 28 29 30 30 29 28 28 28 28 29 32 35 35 35 35 32 29 28 27 27 27 28 28 27 26 27 27 28 29 29 29 31 32 33 33 34 34 35 36 37
33 31 28 27 28 30 32 32 31 30 31 32 34 37 38 37 35 31 29 30 29 27 27 27 28 28 28 29 28 27 28 28 28 30 32 33 34 34 35 35 36 37
32 31 29 27 27 28 31 34 35 36 36 38 40 42 40 37 35 32 30 31 31 29 28 29 29 28 28 28 28 28 28 28 28 29 30 31 33 33 34 35 36 37
33 32 30 28 27 27 29 33 37 39 41 42 44 45 44 42 39 36 36 35 32 29 28 28 29 28 27 27 28 28 28 28 28 28 29 30 30 32 33 34 35 36
33 32 31 29 27 27 29 31 34 38 40 42 44 45 44 43 42 40 39 36 31 28 27 28 28 28 26 26 26 26 27 28 28 28 29 29 29 30 31 33 34 35
32 30 30 29 27 27 29 29 31 33 35 37 39 39 40 40 39 36 34 31 27 26 26 26 27 27 25 24 24 24 26 27 27 28 28 29 29 30 31 32 33 34
30 29 29 28 27 27 27 28 28 28 29 29 30 31 31 32 31 28 26 24 23 24 25 26 27 25 23 22 22 23 24 25 26 27 28 30 31 32 32 32 32 33
27 27 27 26 25 24 24 24 24 24 24 24 24 25 26 25 24 23 22 21 22 23 24 25 26 23 21 21 22 23 24 25 26 28 29 31 32 33 33 32 32 33
24 24 24 23 22 21 21 20 20 20 20 20 21 20 19 18 17 17 18 18 20 22 23 24 24 22 20 21 22 23 24 26 27 29 30 31 32 32 32 33 33 34
20 20 19 19 18 18 18 17 17 16 15 14 13 11 10 10 11 13 14 15 17 20 22 22 22 21 21 22 23 24 25 27 29 30 30 31 31 31 32 33 33 34
15 15 14 14 15 16 15 13 12 9 7 6 4 2 4 6 7 10 12 13 16 18 20 22 23 23 23 23 24 25 26 27 29 30 30 30 31 31 32 33 33 34
10 10 11 12 12 11 10 7 5 3 1 1 1 4 5 7 7 10 12 14 16 19 21 23 23 24 24 24 25 25 26 27 28 29 29 30 31 32 33 34 34 35
6 7 8 8 7 6 5 4 3 1 0 1 3 5 8 8 9 11 13 15 17 19 21 22 22 22 23 24 24 25 25 27 28 29 30 31 32 33 34 35 35 36
4 5 5 3 1 2 2 4 4 2 2 4 5 6 8 9 10 12 13 15 16 16 17 18 18 18 20 22 23 24 25 27 29 30 31 33 34 35 36 36 36 37
4 4 2 2 2 1 1 3 3 3 4 6 7 8 11 12 11 10 10 11 11 10 12 14 15 16 18 22 24 24 26 28 30 32 33 34 36 36 37 38 39 39
4 3 3 4 2 3 3 1 1 3 5 7 8 10 11 10 9 8 6 6 7 9 10 13 15 17 18 21 23 24 25 28 30 33 35 37 38 39 39 39 39 39
5 4 4 3 4 5 5 3 2 2 4 5 6 7 7 7 8 7 6 7 9 10 12 14 18 21 21 21 22 23 24 26 29 32 34 35 36 37 37 36 36 36
Wind_Direction
290 290 285 284 281 278 279 280 279 281 279 276 275 275 275 272 268 265 264 263 261 261 260 255 249 245 242 242 241 241 244 247 250 253 255 256 256 255 252 249 247 247
294 291 285 280 278 278 279 279 275 274 274 273 270 270 271 270 267 264 262 262 261 259 259 257 254 248 243 241 239 238 240 242 245 248 250 253 255 255 254 252 250 248
298 296 291 282 279 281 281 280 276 273 271 270 269 268 268 268 267 265 262 260 258 256 256 255 255 252 247 243 240 238 237 239 240 242 245 248 250 252 253 252 251 249
295 294 292 286 278 274 275 275 276 275 270 268 269 268 268 266 263 263 262 259 256 254 255 255 255 254 250 247 244 241 238 238 238 239 241 243 245 247 249 250 250 250
293 290 289 287 280 274 272 270 272 275 270 266 269 271 270 267 263 261 260 258 257 256 257 258 257 254 251 249 247 244 241 239 239 239 240 241 242 243 244 245 247 248
296 289 283 281 278 273 270 266 268 274 273 268 271 274 273 269 266 264 261 259 258 256 255 256 256 254 251 249 248 246 244 242 240 241 241 241 241 243 243 243 243 244
302 294 281 272 269 267 264 262 263 269 273 270 269 273 275 273 270 266 264 263 260 255 253 254 254 253 252 249 247 245 245 244 242 242 243 242 242 243 244 244 244 243
306 302 287 269 261 259 259 259 260 265 269 267 263 264 270 273 269 267 267 266 262 258 255 253 252 253 253 251 248 245 244 245 245 244 245 245 245 246 246 246 247 245
310 307 295 277 262 257 256 255 257 262 264 264 260 255 254 257 259 261 263 263 261 260 258 255 251 249 251 252 251 248 245 243 245 247 247 247 248 249 250 251 251 250
310 308 300 287 271 258 251 250 254 256 254 255 257 254 249 250 257 264 264 263 261 260 258 256 252 248 247 247 249 250 248 245 245 247 248 248 248 248 249 251 252 253
307 308 302 292 279 263 251 246 248 248 246 246 251 255 254 253 260 267 268 266 264 261 259 257 255 252 248 247 248 249 251 250 248 247 248 248 249 248 249 249 250 251
304 307 303 295 285 272 257 249 247 247 246 247 250 256 260 261 262 264 269 272 268 263 261 259 256 254 251 250 250 250 252 253 252 249 248 249 249 249 248 248 248 248
301 303 304 298 288 280 269 257 253 252 253 253 255 259 262 264 264 263 268 273 269 263 260 259 258 255 252 251 252 252 253 254 253 253 252 250 250 249 248 248 248 248
296 299 303 298 288 282 275 267 260 257 257 258 259 261 263 264 264 262 264 266 263 260 260 260 259 257 254 251 251 252 253 255 256 256 257 256 254 252 251 250 250 249
292 295 299 296 287 281 277 273 267 262 261 261 263 264 265 265 264 260 257 255 254 257 259 259 259 258 256 255 254 253 254 256 258 260 261 261 259 256 253 251 250 249
290 292 295 293 287 282 279 276 272 267 267 267 269 269 266 265 263 253 242 240 246 252 256 259 258 257 256 256 257 258 258 259 260 260 260 258 257 256 253 251 249 248
287 289 292 291 287 284 282 278 273 272 272 271 271 269 266 265 258 242 230 231 238 243 249 255 258 259 259 258 259 260 261 262 260 257 256 255 254 254 252 251 249 247
282 285 288 288 287 286 284 281 278 278 277 275 273 270 268 262 247 232 227 229 235 240 245 252 257 261 263 261 260 261 262 263 261 259 257 256 255 253 251 250 249 248
283 285 287 286 287 289 288 287 286 285 284 283 279 271 260 241 222 221 228 233 240 248 251 253 257 260 262 261 261 262 262 262 262 262 261 260 258 255 253 251 250 249
284 284 284 285 288 290 290 292 292 291 297 301 290 229 205 207 218 232 238 242 250 255 255 254 255 258 261 262 263 263 263 262 261 261 261 260 258 256 255 254 253 253
276 279 284 288 290 289 290 291 289 292 318 304 208 185 192 204 223 241 248 251 255 256 255 255 256 259 261 262 262 261 260 259 259 259 258 256 254 253 254 255 256 257
276 286 292 292 291 294 290 261 236 226 303 243 222 216 218 218 225 241 253 258 260 261 261 262 262 263 263 263 262 260 259 257 256 256 255 254 253 253 255 257 260 263
301 307 306 300 316 342 290 230 211 201 232 262 261 249 249 251 251 255 263 267 268 270 272 271 270 268 267 267 266 264 263 260 258 257 255 254 254 255 258 260 262 265
349 344 6 113 114 25 282 219 218 226 246 263 272 273 272 269 267 272 280 284 286 287 284 280 277 275 271 268 267 265 264 263 263 262 259 258 258 258 259 261 262 264
30 46 100 112 92 40 52 78 224 247 263 272 278 285 286 282 286 295 298 299 298 294 292 290 290 286 276 266 262 260 259 260 261 261 260 260 261 261 262 263 264 264
63 93 104 83 61 63 61 35 319 278 279 287 295 310 323 324 318 308 297 298 296 293 297 302 303 299 286 272 265 263 263 263 263 263 263 262 263 264 264 264 263 262